Hourly Data Report for September 02, 2017

All times are specified in Local Standard Time (LST). Add 1 hour to adjust for Daylight Saving Time where and when it is observed.

KOUCHIBOUGUAC CS
NEW BRUNSWICK

46°47'00.000" N
65°01'00.000" W
21.00 m
8102328
71670
AKC

Download Data

Hourly Data (September 2017)
Hourly Data Report for September 2, 2017
Temp Definition
°C
Dew Point Temp Definition
°C
Rel Hum Definition
%
Wind Dir Definition
10's deg

Wind Spd Definition
km/h
Visibility Definition
km
Stn Press Definition
kPa
Hmdx Definition


Wind Chill Definition


Weather Definition


TIME
00:00 8.5 6.5 87 25 5   100.85     LegendNANA
01:00 8.3 6.5 89 26 6   100.94     LegendNANA
02:00 8.0 6.1 88 29 7   100.99     LegendNANA
03:00 7.6 5.7 87 28 7   101.06     LegendNANA
04:00 6.8 5.1 89 29 9   101.11     LegendNANA
05:00 6.6 4.7 87 29 7   101.18     LegendNANA
06:00 6.1 4.5 89 30 7   101.25     LegendNANA
07:00 8.0 5.3 83 29 7   101.34     LegendNANA
08:00 10.3 5.8 74 30 10   101.44     LegendNANA
09:00 11.2 5.6 69 31 14   101.50     LegendNANA
10:00 12.1 5.4 64 31 10   101.53     LegendNANA
11:00 12.7 5.8 63 33 13   101.57     LegendNANA
12:00 13.9 5.5 57 32 15   101.57     LegendNANA
13:00 15.7 5.5 51 33 11   101.58     LegendNANA
14:00 17.9 7.5 51 31 8   101.56     LegendNANA
15:00 18.2 6.7 47 34 9   101.61     LegendNANA
16:00 19.3 7.1 45 33 9   101.64     LegendNANA
17:00 18.9 8.3 50 12 5   101.67     LegendNANA
18:00 17.7 9.9 60 16 2   101.72     LegendNANA
19:00 13.1 9.7 80 14 3   101.79     LegendNANA
20:00 10.1 8.8 92 16 2   101.90     LegendNANA
21:00 8.6 7.8 95 16 2   101.95     LegendNANA
22:00 7.8 7.4 97 19 3   101.99     LegendNANA
23:00 7.4 7.0 97 16 2   102.00     LegendNANA

Notes on Data Quality.

Legend

  • E = Estimated
  • M = Missing
  • NA = Not Available
  • ‡ = Partner data that is not subject to review by the National Climate Archives
Date modified: